Regional Weather Roundup
Issued by NWS Little Rock, AR

Home | Current Version | Previous Version | Graphics & Text | Print | Product List | Glossary On
Versions: 1 2 3 4 5 6 7 8 9 10 11 12 13 14 15 16 17 18 19 20 21 22 23 24 25 26 27 28 29 30 31 32 33 34 35 36 37 38 39 40 41 42 43 44 45 46
000
ASUS44 KLZK 290505
RWRLZK

WEATHER ROUNDUP FOR ARKANSAS
NATIONAL WEATHER SERVICE LITTLE ROCK AR
1200 AM CDT WED JUL 29 2015

NOTE: "FAIR" INDICATES FEW OR NO CLOUDS BELOW 12,000 FEET WITH NO
SIGNIFICANT WEATHER AND/OR OBSTRUCTIONS TO VISIBILITY.

ARZ001-003-010-029-290600-
NORTHWEST ARKANSAS

CITY           SKY/WX    TMP DP  RH WIND       PRES   REMARKS
FAYETTEVILLE   CLEAR     77  75  93 SW3       30.02R
FORT SMITH     CLEAR     85  68  56 CALM      29.96R HX  88
HARRISON       CLEAR     80  75  84 CALM      30.03R HX  85
BENTONVILLE    CLEAR     81  72  74 CALM      30.03R
ROGERS         CLEAR     79  75  87 S5        30.03R
SILOAM SPGS    CLEAR     79  72  78 CALM      30.01R
HIGHFILL       CLEAR     80  76  87 S3        30.02R HX  86
$$

ARZ004-005-016-290600-
NORTH CENTRAL ARKANSAS

CITY           SKY/WX    TMP DP  RH WIND       PRES   REMARKS
BATESVILLE     CLEAR     84  75  74 CALM      29.98S HX  92
FLIPPIN        CLEAR     81  75  83 CALM      29.98R HX  86
MTN HOME       CLEAR     80  75  84 CALM      30.00R HX  85
$$

ARZ040-041-290600-
WEST CENTRAL ARKANSAS

CITY           SKY/WX    TMP DP  RH WIND       PRES   REMARKS
MENA           CLEAR     79  72  78 CALM      30.03R
MOUNT IDA      CLEAR     78  73  84 CALM      29.99R
$$

ARZ009-017-025-026-028-290600-
NORTHEAST ARKANSAS

CITY           SKY/WX    TMP DP  RH WIND       PRES   REMARKS
JONESBORO      CLEAR     83  79  88 S3        29.98R HX  94
NEWPORT        CLEAR     83  80  90 CALM      29.99R HX  95
WALNUT RIDGE   CLEAR     82  77  83 S5        29.97S HX  91
BLYTHEVILLE    CLEAR     84  81  90 S5        29.98S HX  99
$$

ARZ022-023-033-042-044-290600-
CENTRAL ARKANSAS

CITY           SKY/WX    TMP DP  RH WIND       PRES   REMARKS
LITTLE ROCK    CLEAR     84  75  74 SW3       29.98S HX  92
N LITTLE ROCK  CLEAR     84  76  77 SW3       29.98S HX  93
JACKSONVILLE   CLEAR     86  75  71 S5        29.98R HX  95
SEARCY         CLEAR     80  77  90 CALM      29.99R HX  87
HOT SPRINGS    CLEAR     83  72  69 E3        30.00R HX  88
RUSSELLVILLE   CLEAR     79  75  87 NE3       29.97R
CLINTON        FAIR      77  77 100 CALM      30.01R FOG
$$

ARZ036-290600-
EAST ARKANSAS

CITY           SKY/WX    TMP DP  RH WIND       PRES   REMARKS
WEST MEMPHIS   CLEAR     82  79  90 S3        29.98S HX  92
$$

ARZ050-053-066-070-073-290600-
SOUTHWEST ARKANSAS

CITY           SKY/WX    TMP DP  RH WIND       PRES   REMARKS
ARKADELPHIA    FAIR      79  79 100 CALM      29.99R
CAMDEN         CLEAR     79  75  89 CALM      29.98R
TEXARKANA      CLEAR     83  70  64 S6        29.98R HX  87
EL DORADO      CLEAR     79  76  90 CALM      29.99R
DE QUEEN       CLEAR     78  76  93 CALM      29.96R
$$

ARZ056-057-069-290600-
SOUTHEAST ARKANSAS

CITY           SKY/WX    TMP DP  RH WIND       PRES   REMARKS
PINE BLUFF     CLEAR     80  77  90 CALM      29.99R HX  87
STUTTGART      CLEAR     84  75  74 SE7       29.98S HX  92
MONTICELLO     CLEAR     82  77  84 CALM      29.99S HX  90

$$




USA.gov is the U.S. government's official web portal to all federal, state and local government web resources and services.